WBANNO,USDM_WEEK,LONGITUDE,LATITUDE,SMVWC_5_CM_MEAN,SMANOM_5_CM_MEAN,SMPERC_5_CM_30COUNTS,SMPERC_5_CM_70COUNTS,SMVWC_10_CM_MEAN,SMANOM_10_CM_MEAN,SMPERC_10_CM_30COUNTS,SMPERC_10_CM_70COUNTS,SMVWC_20_CM_MEAN,SMANOM_20_CM_MEAN,SMPERC_20_CM_30COUNTS,SMPERC_20_CM_70COUNTS,SMVWC_50_CM_MEAN,SMANOM_50_CM_MEAN,SMPERC_50_CM_30COUNTS,SMPERC_50_CM_70COUNTS,SMVWC_100_CM_MEAN,SMANOM_100_CM_MEAN,SMPERC_100_CM_30COUNTS,SMPERC_100_CM_70COUNTS,SMVWC_TOP_CM_MEAN,SMANOM_TOP_CM_MEAN,SMPERC_TOP_CM_30COUNTS,SMPERC_TOP_CM_70COUNTS,SMVWC_COLUMN_CM_MEAN,SMANOM_COLUMN_CM_MEAN,SMPERC_COLUMN_CM_30COUNTS,SMPERC_COLUMN_CM_70COUNTS
54796,20100603,-71.54,41.49,,,,,,,,,,,,,,,,,,,,,,,,,,,,
54796,20100604,-71.54,41.49,,,,,,,,,,,,,,,,,,,,,,,,,,,,
54796,20100605,-71.54,41.49,,,,,,,,,,,,,,,,,,,,,,,,,,,,
54796,20100606,-71.54,41.49,,,,,,,,,,,,,,,,,,,,,,,,,,,,
54796,20100607,-71.54,41.49,,,,,,,,,,,,,,,,,,,,,,,,,,,,
54796,20100608,-71.54,41.49,,,,,,,,,,,,,,,,,,,,,,,,,,,,
54796,20100609,-71.54,41.49,0.17,-1.75,0.967,0.007,0.211,-1.29,0.803,0.059,0.207,-1.03,0.934,0,0.154,-2.9,1,0,0.028,-1.16,1,0,0.19,-1.57,0.934,0.02,0.154,-1.97,1,0
54796,20100610,-71.54,41.49,0.172,-1.67,0.97,0.006,0.214,-1.15,0.818,0.055,0.208,-0.96,0.939,0,0.155,-2.8,1,0,0.028,-1.16,1,0,0.193,-1.46,0.939,0.018,0.156,-1.88,1,0
54796,20100611,-71.54,41.49,0.18,-1.45,0.97,0.006,0.223,-0.86,0.756,0.054,0.212,-0.83,0.94,0,0.156,-2.64,1,0,0.029,-1.15,1,0,0.201,-1.21,0.899,0.018,0.16,-1.69,1,0
54796,20100612,-71.54,41.49,0.189,-1.18,0.97,0.006,0.234,-0.53,0.613,0.054,0.218,-0.66,0.94,0,0.159,-2.46,1,0,0.029,-1.14,1,0,0.211,-0.92,0.899,0.018,0.166,-1.47,1,0
54796,20100613,-71.54,41.49,0.189,-1.14,0.952,0.048,0.234,-0.52,0.643,0.048,0.22,-0.6,0.952,0.042,0.161,-2.28,1,0,0.029,-1.12,1,0,0.211,-0.89,0.911,0.048,0.167,-1.4,0.952,0.024
54796,20100614,-71.54,41.49,0.197,-0.96,0.81,0.065,0.241,-0.3,0.536,0.19,0.229,-0.38,0.81,0.185,0.169,-2.02,1,0,0.029,-1.1,1,0,0.219,-0.69,0.768,0.137,0.173,-1.19,0.81,0.024
54796,20100615,-71.54,41.49,0.203,-0.8,0.69,0.065,0.249,-0.06,0.393,0.333,0.237,-0.18,0.667,0.327,0.179,-1.75,1,0,0.03,-1.06,1,0,0.226,-0.49,0.625,0.137,0.18,-0.97,0.667,0.024
54796,20100616,-71.54,41.49,0.209,-0.65,0.69,0.065,0.257,0.16,0.25,0.464,0.245,0.02,0.524,0.47,0.189,-1.5,1,0,0.031,-1.02,1,0,0.233,-0.3,0.482,0.137,0.186,-0.76,0.524,0.024
54796,20100617,-71.54,41.49,0.215,-0.51,0.69,0.065,0.264,0.36,0.107,0.518,0.253,0.21,0.381,0.601,0.198,-1.27,1,0,0.032,-0.96,1,0,0.239,-0.13,0.339,0.137,0.192,-0.57,0.381,0.024
54796,20100618,-71.54,41.49,0.216,-0.46,0.69,0.065,0.266,0.42,0.03,0.524,0.259,0.34,0.238,0.601,0.207,-1.07,1,0,0.033,-0.9,1,0,0.241,-0.08,0.238,0.137,0.196,-0.44,0.28,0.024
54796,20100619,-71.54,41.49,0.215,-0.46,0.69,0.065,0.264,0.41,0.03,0.524,0.262,0.43,0.095,0.601,0.215,-0.9,1,0,0.034,-0.85,1,0,0.24,-0.08,0.232,0.137,0.198,-0.35,0.28,0.024
54796,20100620,-71.54,41.49,0.207,-0.57,0.738,0.018,0.26,0.32,0,0.476,0.261,0.43,0,0.56,0.22,-0.79,1,0,0.035,-0.81,1,0,0.234,-0.18,0.28,0.089,0.197,-0.35,0.327,0
54796,20100621,-71.54,41.49,0.197,-0.73,0.881,0,0.25,0.11,0.083,0.333,0.254,0.29,0,0.417,0.218,-0.8,1,0,0.036,-0.78,1,0,0.223,-0.37,0.423,0,0.191,-0.46,0.47,0
54796,20100622,-71.54,41.49,0.188,-0.86,1,0,0.241,-0.08,0.22,0.19,0.247,0.17,0,0.274,0.214,-0.83,1,0,0.036,-0.77,1,0,0.214,-0.52,0.565,0,0.185,-0.57,0.613,0
54796,20100623,-71.54,41.49,0.18,-0.96,1,0,0.234,-0.23,0.339,0.06,0.241,0.06,0,0.131,0.209,-0.87,1,0,0.036,-0.77,1,0,0.207,-0.64,0.708,0,0.18,-0.66,0.756,0
54796,20100624,-71.54,41.49,0.174,-1.02,1,0,0.228,-0.33,0.429,0.006,0.235,-0.03,0,0,0.204,-0.91,1,0,0.035,-0.78,1,0,0.201,-0.73,0.851,0,0.175,-0.73,0.899,0
54796,20100625,-71.54,41.49,0.168,-1.09,1,0,0.222,-0.44,0.571,0,0.23,-0.12,0,0,0.199,-0.95,1,0,0.035,-0.79,1,0,0.195,-0.81,0.994,0,0.171,-0.81,1,0
54796,20100626,-71.54,41.49,0.163,-1.13,1,0,0.217,-0.51,0.714,0,0.225,-0.19,0,0,0.194,-1,1,0,0.034,-0.8,1,0,0.19,-0.87,1,0,0.167,-0.87,1,0
54796,20100627,-71.54,41.49,0.159,-1.15,1,0,0.212,-0.58,0.857,0,0.221,-0.25,0.03,0,0.189,-1.04,1,0,0.034,-0.8,1,0,0.186,-0.91,1,0,0.163,-0.93,1,0
54796,20100628,-71.54,41.49,0.155,-1.17,1,0,0.208,-0.63,0.917,0,0.217,-0.31,0.125,0,0.185,-1.09,1,0,0.034,-0.8,1,0,0.181,-0.95,1,0,0.16,-0.98,1,0
54796,20100629,-71.54,41.49,0.152,-1.18,1,0,0.205,-0.66,0.923,0,0.213,-0.35,0.268,0,0.18,-1.13,1,0,0.033,-0.79,1,0,0.178,-0.96,1,0,0.157,-1.01,1,0
54796,20100630,-71.54,41.49,0.15,-1.18,1,0,0.202,-0.67,0.946,0,0.211,-0.38,0.405,0,0.176,-1.16,1,0,0.033,-0.79,1,0,0.176,-0.97,1,0,0.154,-1.02,1,0
54796,20100701,-71.54,41.49,0.146,-1.21,1,0,0.198,-0.72,1,0,0.207,-0.42,0.548,0,0.172,-1.19,1,0,0.032,-0.78,1,0,0.172,-1.01,1,0,0.151,-1.05,1,0
54796,20100702,-71.54,41.49,0.143,-1.24,1,0,0.195,-0.76,1,0,0.204,-0.46,0.69,0,0.168,-1.22,1,0,0.032,-0.77,1,0,0.169,-1.03,1,0,0.148,-1.07,1,0
54796,20100703,-71.54,41.49,0.139,-1.26,1,0,0.191,-0.8,1,0,0.201,-0.5,0.833,0,0.164,-1.24,1,0,0.032,-0.76,1,0,0.165,-1.06,1,0,0.146,-1.09,1,0
54796,20100704,-71.54,41.49,0.136,-1.29,1,0,0.188,-0.84,1,0,0.198,-0.53,0.946,0,0.161,-1.25,1,0,0.031,-0.75,1,0,0.162,-1.09,1,0,0.143,-1.1,1,0
54796,20100705,-71.54,41.49,0.132,-1.33,1,0,0.184,-0.89,1,0,0.195,-0.57,0.994,0,0.157,-1.25,1,0,0.031,-0.75,1,0,0.158,-1.12,1,0,0.14,-1.12,1,0
54796,20100706,-71.54,41.49,0.126,-1.37,1,0,0.179,-0.95,1,0,0.192,-0.6,0.994,0,0.154,-1.24,1,0,0.03,-0.75,1,0,0.153,-1.17,1,0,0.136,-1.14,1,0
54796,20100707,-71.54,41.49,0.12,-1.44,1,0,0.173,-1.04,1,0,0.188,-0.65,1,0,0.15,-1.24,1,0,0.03,-0.75,1,0,0.146,-1.25,1,0,0.132,-1.18,1,0
54796,20100708,-71.54,41.49,0.112,-1.51,1,0,0.167,-1.12,1,0,0.184,-0.69,1,0,0.146,-1.24,1,0,0.029,-0.76,1,0,0.14,-1.32,1,0,0.128,-1.23,1,0
54796,20100709,-71.54,41.49,0.105,-1.57,1,0,0.16,-1.2,1,0,0.18,-0.73,1,0,0.143,-1.24,1,0,0.029,-0.78,1,0,0.133,-1.4,1,0,0.123,-1.27,1,0
54796,20100710,-71.54,41.49,0.098,-1.62,1,0,0.155,-1.26,1,0,0.176,-0.76,1,0,0.139,-1.24,1,0,0.028,-0.78,1,0,0.127,-1.46,1,0,0.119,-1.31,1,0
54796,20100711,-71.54,41.49,0.094,-1.65,1,0,0.152,-1.28,1,0,0.173,-0.78,1,0,0.135,-1.23,1,0,0.028,-0.8,1,0,0.123,-1.49,1,0,0.117,-1.32,1,0
54796,20100712,-71.54,41.49,0.09,-1.67,1,0,0.149,-1.31,1,0,0.17,-0.8,1,0,0.132,-1.23,1,0,0.028,-0.82,1,0,0.12,-1.52,1,0,0.114,-1.34,1,0
54796,20100713,-71.54,41.49,0.087,-1.68,1,0,0.146,-1.33,1,0,0.168,-0.82,1,0,0.129,-1.23,1,0,0.027,-0.86,1,0,0.116,-1.54,1,0,0.111,-1.34,1,0
54796,20100714,-71.54,41.49,0.086,-1.66,1,0,0.146,-1.29,1,0,0.165,-0.84,1,0,0.126,-1.23,1,0,0.027,-0.9,1,0,0.116,-1.51,1,0,0.11,-1.32,1,0
54796,20100715,-71.54,41.49,0.092,-1.55,1,0,0.154,-1.11,0.905,0.018,0.167,-0.77,0.911,0,0.124,-1.22,1,0,0.027,-0.92,1,0,0.123,-1.37,0.964,0,0.113,-1.23,1,0
54796,20100716,-71.54,41.49,0.099,-1.42,1,0,0.162,-0.96,0.798,0.018,0.171,-0.69,0.768,0,0.123,-1.2,1,0,0.027,-0.95,1,0,0.13,-1.22,0.964,0,0.116,-1.13,1,0
54796,20100717,-71.54,41.49,0.105,-1.3,1,0,0.167,-0.84,0.798,0.018,0.173,-0.63,0.625,0,0.122,-1.16,1,0,0.027,-0.98,1,0,0.136,-1.1,0.964,0,0.119,-1.04,1,0
54796,20100718,-71.54,41.49,0.107,-1.22,1,0,0.169,-0.76,0.798,0.018,0.175,-0.58,0.607,0,0.122,-1.13,1,0,0.027,-1,1,0,0.138,-1.01,0.964,0,0.12,-0.98,1,0
54796,20100719,-71.54,41.49,0.109,-1.14,1,0,0.171,-0.69,0.798,0.018,0.176,-0.54,0.607,0,0.122,-1.09,1,0,0.027,-1.02,1,0,0.14,-0.94,0.964,0,0.121,-0.92,1,0
54796,20100720,-71.54,41.49,0.115,-1.01,0.988,0,0.179,-0.51,0.679,0.03,0.179,-0.46,0.506,0,0.123,-1.04,1,0,0.027,-1.03,1,0,0.147,-0.78,0.875,0,0.125,-0.82,0.952,0
54796,20100721,-71.54,41.49,0.12,-0.9,0.988,0,0.184,-0.41,0.542,0.03,0.183,-0.38,0.363,0,0.125,-0.97,1,0,0.027,-1.03,1,0,0.152,-0.68,0.869,0,0.128,-0.73,0.952,0
54796,20100722,-71.54,41.49,0.118,-0.88,0.988,0,0.179,-0.46,0.595,0.012,0.181,-0.39,0.345,0,0.127,-0.92,1,0,0.027,-1.05,1,0,0.148,-0.69,0.905,0,0.126,-0.71,0.952,0
54796,20100723,-71.54,41.49,0.115,-0.87,0.988,0,0.175,-0.49,0.69,0.012,0.179,-0.41,0.399,0,0.129,-0.87,1,0,0.027,-1.06,1,0,0.145,-0.69,0.905,0,0.125,-0.71,0.952,0
54796,20100724,-71.54,41.49,0.117,-0.81,0.923,0,0.177,-0.43,0.613,0.071,0.179,-0.39,0.47,0,0.13,-0.83,1,0,0.027,-1.08,1,0,0.147,-0.63,0.827,0.006,0.126,-0.66,0.887,0
54796,20100725,-71.54,41.49,0.126,-0.68,0.78,0.006,0.186,-0.26,0.47,0.19,0.187,-0.25,0.345,0.089,0.133,-0.77,1,0,0.027,-1.09,1,0,0.156,-0.48,0.685,0.042,0.132,-0.55,0.744,0
54796,20100726,-71.54,41.49,0.134,-0.55,0.637,0.006,0.195,-0.1,0.327,0.238,0.194,-0.12,0.202,0.173,0.137,-0.7,0.905,0,0.027,-1.09,1,0,0.165,-0.34,0.542,0.042,0.138,-0.43,0.601,0
54796,20100727,-71.54,41.49,0.136,-0.51,0.595,0.006,0.195,-0.08,0.304,0.226,0.198,-0.05,0.161,0.173,0.141,-0.64,0.762,0,0.027,-1.09,1,0,0.166,-0.31,0.488,0.042,0.139,-0.39,0.506,0
54796,20100728,-71.54,41.49,0.137,-0.48,0.595,0.006,0.196,-0.05,0.298,0.226,0.2,0,0.161,0.173,0.144,-0.59,0.619,0,0.028,-1.06,1,0,0.166,-0.28,0.351,0.042,0.141,-0.36,0.363,0
54796,20100729,-71.54,41.49,0.136,-0.47,0.595,0.006,0.197,-0.02,0.196,0.226,0.203,0.05,0.125,0.173,0.146,-0.55,0.577,0,0.028,-1.02,1,0,0.167,-0.26,0.304,0.042,0.142,-0.34,0.304,0
54796,20100730,-71.54,41.49,0.135,-0.47,0.595,0.006,0.198,0,0.065,0.226,0.205,0.09,0.071,0.173,0.149,-0.51,0.577,0,0.028,-0.99,1,0,0.167,-0.25,0.304,0.042,0.143,-0.32,0.304,0
54796,20100731,-71.54,41.49,0.13,-0.52,0.661,0.006,0.194,-0.04,0,0.167,0.204,0.08,0,0.173,0.15,-0.48,0.577,0,0.028,-0.96,1,0,0.162,-0.3,0.381,0.036,0.141,-0.33,0.369,0
54796,20100801,-71.54,41.49,0.12,-0.63,0.804,0,0.184,-0.19,0.006,0.048,0.197,-0.03,0,0.083,0.15,-0.47,0.577,0,0.028,-0.93,1,0,0.152,-0.43,0.524,0,0.136,-0.42,0.512,0
54796,20100802,-71.54,41.49,0.11,-0.74,0.946,0,0.175,-0.3,0.143,0,0.19,-0.13,0,0,0.148,-0.49,0.673,0,0.028,-0.89,1,0,0.143,-0.54,0.667,0,0.13,-0.5,0.655,0
54796,20100803,-71.54,41.49,0.102,-0.82,1,0,0.169,-0.39,0.286,0,0.185,-0.2,0,0,0.145,-0.52,0.815,0,0.028,-0.85,1,0,0.135,-0.62,0.81,0,0.126,-0.56,0.798,0
54796,20100804,-71.54,41.49,0.095,-0.89,1,0,0.162,-0.46,0.429,0,0.18,-0.26,0.054,0,0.142,-0.54,0.958,0,0.028,-0.86,1,0,0.129,-0.7,0.952,0,0.121,-0.62,0.94,0
54796,20100805,-71.54,41.49,0.089,-0.94,1,0,0.157,-0.52,0.571,0,0.176,-0.32,0.185,0,0.139,-0.57,1,0,0.027,-0.85,1,0,0.123,-0.75,1,0,0.118,-0.67,1,0
54796,20100806,-71.54,41.49,0.085,-0.96,1,0,0.152,-0.56,0.714,0,0.173,-0.36,0.31,0,0.137,-0.6,1,0,0.027,-0.83,1,0,0.119,-0.78,1,0,0.115,-0.7,1,0
54796,20100807,-71.54,41.49,0.082,-0.97,1,0,0.148,-0.6,0.857,0,0.17,-0.39,0.446,0,0.134,-0.62,1,0,0.027,-0.81,1,0,0.115,-0.81,1,0,0.112,-0.72,1,0
54796,20100808,-71.54,41.49,0.08,-0.98,1,0,0.145,-0.63,0.994,0,0.167,-0.42,0.589,0,0.132,-0.64,1,0,0.027,-0.79,1,0,0.112,-0.82,1,0,0.11,-0.74,1,0
54796,20100809,-71.54,41.49,0.077,-0.98,1,0,0.141,-0.66,1,0,0.164,-0.45,0.732,0,0.13,-0.65,1,0,0.027,-0.79,1,0,0.109,-0.83,1,0,0.108,-0.76,1,0
54796,20100810,-71.54,41.49,0.075,-0.98,1,0,0.138,-0.69,1,0,0.162,-0.48,0.875,0,0.128,-0.66,1,0,0.026,-0.79,1,0,0.106,-0.84,1,0,0.106,-0.77,1,0
54796,20100811,-71.54,41.49,0.072,-0.98,1,0,0.134,-0.72,1,0,0.159,-0.5,0.964,0,0.125,-0.67,1,0,0.026,-0.77,1,0,0.103,-0.85,1,0,0.103,-0.78,1,0
54796,20100812,-71.54,41.49,0.069,-0.98,1,0,0.13,-0.75,1,0,0.155,-0.53,0.976,0,0.123,-0.68,1,0,0.026,-0.79,1,0,0.1,-0.87,1,0,0.101,-0.8,1,0
54796,20100813,-71.54,41.49,0.065,-1,1,0,0.125,-0.8,1,0,0.152,-0.57,0.994,0,0.121,-0.69,1,0,0.025,-0.81,1,0,0.095,-0.9,1,0,0.098,-0.83,1,0
54796,20100814,-71.54,41.49,0.059,-1.03,1,0,0.119,-0.86,1,0,0.147,-0.62,1,0,0.119,-0.7,1,0,0.025,-0.85,1,0,0.089,-0.95,1,0,0.094,-0.86,1,0
54796,20100815,-71.54,41.49,0.054,-1.06,1,0,0.113,-0.92,1,0,0.142,-0.67,1,0,0.116,-0.71,1,0,0.024,-0.88,1,0,0.084,-0.99,1,0,0.09,-0.9,1,0
54796,20100816,-71.54,41.49,0.05,-1.09,1,0,0.106,-0.99,1,0,0.137,-0.72,1,0,0.113,-0.72,1,0,0.023,-0.92,1,0,0.078,-1.04,1,0,0.086,-0.94,1,0
54796,20100817,-71.54,41.49,0.049,-1.08,1,0,0.102,-1.02,1,0,0.133,-0.77,1,0,0.111,-0.74,1,0,0.023,-0.95,1,0,0.076,-1.05,1,0,0.083,-0.96,1,0
54796,20100818,-71.54,41.49,0.049,-1.07,1,0,0.101,-1.03,1,0,0.129,-0.81,1,0,0.108,-0.75,1,0,0.022,-0.98,1,0,0.075,-1.04,1,0,0.082,-0.96,1,0
54796,20100819,-71.54,41.49,0.05,-1.05,1,0,0.1,-1.03,1,0,0.127,-0.85,1,0,0.106,-0.76,1,0,0.022,-0.99,1,0,0.075,-1.03,1,0,0.081,-0.96,1,0
54796,20100820,-71.54,41.49,0.051,-1.04,1,0,0.099,-1.03,1,0,0.125,-0.88,1,0,0.104,-0.77,1,0,0.022,-1,1,0,0.075,-1.02,1,0,0.08,-0.95,1,0
54796,20100821,-71.54,41.49,0.051,-1.03,1,0,0.099,-1.02,1,0,0.123,-0.9,1,0,0.102,-0.78,1,0,0.022,-1.01,1,0,0.075,-1.02,1,0,0.079,-0.95,1,0
54796,20100822,-71.54,41.49,0.052,-1.02,1,0,0.098,-1.02,1,0,0.122,-0.92,1,0,0.1,-0.78,1,0,0.022,-1.02,1,0,0.075,-1.01,1,0,0.079,-0.94,1,0
54796,20100823,-71.54,41.49,0.063,-0.93,0.887,0,0.113,-0.86,0.887,0,0.127,-0.86,0.94,0,0.1,-0.77,1,0,0.022,-1.03,1,0,0.088,-0.88,0.887,0,0.085,-0.86,0.94,0
54796,20100824,-71.54,41.49,0.075,-0.84,0.744,0,0.13,-0.69,0.744,0,0.138,-0.73,0.798,0,0.102,-0.75,1,0,0.022,-1.05,1,0,0.102,-0.76,0.744,0,0.093,-0.77,0.798,0
54796,20100825,-71.54,41.49,0.086,-0.74,0.601,0,0.146,-0.52,0.601,0,0.15,-0.59,0.655,0,0.104,-0.73,1,0,0.022,-1.06,1,0,0.116,-0.64,0.601,0,0.101,-0.67,0.655,0
54796,20100826,-71.54,41.49,0.1,-0.63,0.458,0,0.164,-0.34,0.458,0.083,0.165,-0.41,0.512,0.054,0.108,-0.69,1,0,0.021,-1.08,1,0,0.132,-0.5,0.458,0,0.112,-0.56,0.512,0
54796,20100827,-71.54,41.49,0.112,-0.54,0.315,0,0.178,-0.19,0.315,0.083,0.176,-0.27,0.369,0.054,0.113,-0.64,1,0,0.021,-1.1,1,0,0.145,-0.39,0.315,0,0.12,-0.46,0.369,0
54796,20100828,-71.54,41.49,0.123,-0.46,0.256,0,0.191,-0.06,0.173,0.083,0.186,-0.15,0.226,0.054,0.119,-0.59,1,0,0.021,-1.1,1,0,0.157,-0.28,0.173,0,0.128,-0.38,0.226,0
54796,20100829,-71.54,41.49,0.132,-0.38,0.256,0,0.204,0.06,0.03,0.083,0.196,-0.04,0.083,0.054,0.125,-0.54,1,0,0.021,-1.12,1,0,0.168,-0.18,0.048,0,0.135,-0.29,0.161,0
54796,20100830,-71.54,41.49,0.13,-0.41,0.369,0,0.199,0.02,0.006,0.083,0.198,0,0,0.054,0.129,-0.5,1,0,0.021,-1.11,1,0,0.165,-0.22,0.149,0,0.135,-0.29,0.22,0
54796,20100831,-71.54,41.49,0.123,-0.47,0.512,0,0.191,-0.06,0.101,0.083,0.194,-0.04,0,0.054,0.132,-0.47,1,0,0.022,-1.1,1,0,0.157,-0.28,0.292,0,0.132,-0.32,0.363,0
54796,20100901,-71.54,41.49,0.114,-0.54,0.655,0,0.181,-0.15,0.244,0.083,0.189,-0.09,0,0.054,0.134,-0.45,1,0,0.022,-1.09,1,0,0.147,-0.37,0.435,0,0.128,-0.36,0.506,0
54796,20100902,-71.54,41.49,0.101,-0.65,0.798,0,0.168,-0.27,0.387,0,0.179,-0.18,0.06,0,0.134,-0.44,1,0,0.022,-1.08,1,0,0.135,-0.48,0.577,0,0.121,-0.43,0.649,0
54796,20100903,-71.54,41.49,0.091,-0.74,0.94,0,0.159,-0.36,0.53,0,0.173,-0.24,0.202,0,0.132,-0.45,1,0,0.022,-1.07,1,0,0.125,-0.57,0.72,0,0.115,-0.49,0.792,0
54796,20100904,-71.54,41.49,0.092,-0.73,0.917,0,0.16,-0.35,0.565,0.012,0.171,-0.25,0.256,0,0.131,-0.45,1,0,0.022,-1.06,1,0,0.126,-0.56,0.756,0,0.115,-0.49,0.857,0
54796,20100905,-71.54,41.49,0.094,-0.72,0.875,0,0.163,-0.32,0.565,0.012,0.172,-0.23,0.256,0,0.131,-0.45,1,0,0.023,-1.03,1,0,0.128,-0.54,0.738,0,0.116,-0.47,0.78,0
54796,20100906,-71.54,41.49,0.096,-0.71,0.875,0,0.164,-0.3,0.56,0.012,0.172,-0.23,0.256,0,0.131,-0.45,1,0,0.023,-1.02,1,0,0.13,-0.52,0.708,0,0.117,-0.46,0.762,0
54796,20100907,-71.54,41.49,0.098,-0.71,0.875,0,0.165,-0.29,0.542,0.012,0.173,-0.22,0.256,0,0.131,-0.45,1,0,0.023,-1.02,1,0,0.131,-0.52,0.708,0,0.118,-0.46,0.762,0
54796,20100908,-71.54,41.49,0.099,-0.7,0.875,0,0.166,-0.29,0.542,0.012,0.173,-0.22,0.256,0,0.131,-0.44,1,0,0.023,-1.01,1,0,0.133,-0.51,0.708,0,0.118,-0.45,0.762,0
54796,20100909,-71.54,41.49,0.101,-0.7,0.875,0,0.167,-0.27,0.542,0.012,0.173,-0.21,0.22,0,0.131,-0.44,1,0,0.023,-1,1,0,0.134,-0.5,0.708,0,0.119,-0.44,0.762,0
54796,20100910,-71.54,41.49,0.103,-0.69,0.875,0,0.168,-0.26,0.542,0.012,0.173,-0.2,0.22,0,0.131,-0.44,1,0,0.023,-1,1,0,0.136,-0.49,0.708,0,0.12,-0.43,0.762,0
54796,20100911,-71.54,41.49,0.095,-0.76,0.958,0,0.162,-0.32,0.649,0,0.171,-0.22,0.31,0,0.13,-0.44,1,0,0.023,-0.99,1,0,0.128,-0.55,0.815,0,0.116,-0.46,0.839,0
54796,20100912,-71.54,41.49,0.087,-0.84,1,0,0.154,-0.4,0.792,0,0.165,-0.27,0.452,0,0.129,-0.44,1,0,0.023,-1,1,0,0.12,-0.63,0.958,0,0.112,-0.51,0.982,0
54796,20100913,-71.54,41.49,0.081,-0.9,1,0,0.149,-0.45,0.935,0,0.162,-0.3,0.595,0,0.127,-0.46,1,0,0.023,-1.01,1,0,0.115,-0.68,1,0,0.108,-0.55,1,0
54796,20100914,-71.54,41.49,0.077,-0.94,1,0,0.144,-0.48,1,0,0.159,-0.33,0.738,0,0.125,-0.47,1,0,0.023,-1.02,1,0,0.111,-0.72,1,0,0.105,-0.57,1,0
54796,20100915,-71.54,41.49,0.073,-0.97,1,0,0.141,-0.51,1,0,0.156,-0.35,0.881,0,0.123,-0.48,1,0,0.022,-1.03,1,0,0.107,-0.74,1,0,0.103,-0.59,1,0
54796,20100916,-71.54,41.49,0.07,-1,1,0,0.138,-0.54,1,0,0.154,-0.37,1,0,0.122,-0.49,1,0,0.022,-1.04,1,0,0.104,-0.77,1,0,0.101,-0.61,1,0
54796,20100917,-71.54,41.49,0.073,-0.98,0.946,0,0.14,-0.52,0.952,0,0.153,-0.37,0.964,0,0.121,-0.5,0.988,0,0.022,-1.05,1,0,0.107,-0.75,0.952,0,0.102,-0.6,0.952,0
54796,20100918,-71.54,41.49,0.083,-0.9,0.833,0,0.149,-0.43,0.81,0,0.16,-0.3,0.821,0,0.122,-0.49,0.94,0,0.021,-1.05,1,0,0.116,-0.67,0.81,0,0.107,-0.55,0.81,0
54796,20100919,-71.54,41.49,0.091,-0.84,0.827,0,0.156,-0.37,0.667,0,0.164,-0.26,0.679,0,0.123,-0.48,0.798,0,0.021,-1.04,1,0,0.124,-0.61,0.667,0,0.111,-0.5,0.667,0
54796,20100920,-71.54,41.49,0.098,-0.8,0.827,0,0.162,-0.32,0.524,0,0.168,-0.22,0.536,0,0.125,-0.46,0.655,0,0.021,-1.03,1,0,0.13,-0.56,0.637,0,0.115,-0.46,0.524,0
54796,20100921,-71.54,41.49,0.104,-0.78,0.827,0,0.167,-0.29,0.411,0,0.171,-0.2,0.393,0,0.127,-0.45,0.524,0,0.022,-1.02,1,0,0.135,-0.53,0.637,0,0.118,-0.43,0.5,0
54796,20100922,-71.54,41.49,0.108,-0.77,0.827,0,0.171,-0.27,0.405,0,0.173,-0.18,0.25,0,0.129,-0.44,0.446,0,0.021,-1.03,1,0,0.139,-0.51,0.637,0,0.121,-0.41,0.5,0
54796,20100923,-71.54,41.49,0.112,-0.77,0.827,0,0.175,-0.25,0.405,0,0.176,-0.16,0.113,0,0.131,-0.43,0.423,0,0.021,-1.03,1,0,0.143,-0.5,0.637,0,0.123,-0.4,0.5,0
54796,20100924,-71.54,41.49,0.109,-0.83,0.881,0,0.174,-0.28,0.452,0,0.176,-0.16,0.143,0,0.133,-0.43,0.435,0,0.021,-1.02,1,0,0.141,-0.55,0.685,0,0.123,-0.41,0.548,0
54796,20100925,-71.54,41.49,0.1,-0.93,0.994,0,0.165,-0.38,0.595,0,0.17,-0.23,0.286,0,0.132,-0.44,0.482,0,0.022,-1.01,1,0,0.133,-0.65,0.827,0,0.118,-0.47,0.69,0
54796,20100926,-71.54,41.49,0.093,-1.03,1,0,0.159,-0.46,0.738,0,0.166,-0.28,0.429,0,0.131,-0.46,0.625,0,0.022,-1.02,1,0,0.126,-0.74,0.97,0,0.114,-0.53,0.833,0
54796,20100927,-71.54,41.49,0.087,-1.12,1,0,0.154,-0.53,0.881,0,0.163,-0.32,0.571,0,0.13,-0.49,0.768,0,0.022,-1.03,1,0,0.12,-0.83,1,0,0.111,-0.58,0.976,0
54796,20100928,-71.54,41.49,0.083,-1.18,1,0,0.15,-0.59,0.994,0,0.161,-0.36,0.714,0,0.128,-0.52,0.899,0,0.022,-1.04,1,0,0.117,-0.9,1,0,0.109,-0.63,1,0
54796,20100929,-71.54,41.49,0.081,-1.23,1,0,0.148,-0.63,1,0,0.159,-0.39,0.857,0,0.127,-0.56,0.976,0,0.022,-1.04,1,0,0.114,-0.94,1,0,0.107,-0.67,1,0
54796,20100930,-71.54,41.49,0.08,-1.26,1,0,0.147,-0.66,1,0,0.158,-0.42,0.994,0,0.126,-0.59,1,0,0.022,-1.06,1,0,0.113,-0.98,1,0,0.106,-0.71,1,0
54796,20101001,-71.54,41.49,0.08,-1.29,1,0,0.146,-0.69,1,0,0.157,-0.45,1,0,0.124,-0.63,1,0,0.022,-1.08,1,0,0.113,-1.02,1,0,0.106,-0.74,1,0
54796,20101002,-71.54,41.49,0.085,-1.26,1,0,0.147,-0.69,1,0,0.156,-0.48,1,0,0.123,-0.66,1,0,0.021,-1.11,1,0,0.116,-1.01,1,0,0.107,-0.75,1,0
54796,20101003,-71.54,41.49,0.092,-1.21,1,0,0.151,-0.67,1,0,0.157,-0.49,1,0,0.123,-0.68,1,0,0.021,-1.13,1,0,0.121,-0.97,1,0,0.109,-0.75,1,0
54796,20101004,-71.54,41.49,0.097,-1.18,1,0,0.154,-0.65,1,0,0.158,-0.5,1,0,0.123,-0.71,1,0,0.021,-1.13,1,0,0.126,-0.94,1,0,0.111,-0.75,1,0
54796,20101005,-71.54,41.49,0.105,-1.12,1,0,0.158,-0.61,1,0,0.159,-0.51,1,0,0.123,-0.72,1,0,0.022,-1.14,1,0,0.131,-0.89,1,0,0.113,-0.73,1,0
54796,20101006,-71.54,41.49,0.112,-1.06,1,0,0.162,-0.58,0.988,0,0.161,-0.5,1,0,0.123,-0.74,1,0,0.022,-1.15,1,0,0.137,-0.83,0.994,0,0.116,-0.71,1,0
54796,20101007,-71.54,41.49,0.127,-0.92,0.899,0,0.179,-0.41,0.845,0.065,0.171,-0.4,0.863,0,0.126,-0.73,1,0,0.022,-1.13,1,0,0.153,-0.67,0.851,0.012,0.125,-0.62,0.857,0
54796,20101008,-71.54,41.49,0.137,-0.83,0.899,0,0.19,-0.3,0.702,0.065,0.181,-0.3,0.72,0,0.131,-0.72,1,0,0.022,-1.12,1,0,0.164,-0.56,0.708,0.012,0.132,-0.55,0.714,0
54796,20101009,-71.54,41.49,0.14,-0.82,0.899,0,0.196,-0.25,0.56,0.065,0.188,-0.24,0.577,0,0.136,-0.69,1,0,0.022,-1.09,1,0,0.168,-0.52,0.685,0.012,0.136,-0.51,0.685,0
54796,20101010,-71.54,41.49,0.142,-0.84,0.899,0,0.2,-0.25,0.482,0.065,0.193,-0.19,0.435,0,0.14,-0.67,1,0,0.022,-1.06,1,0,0.171,-0.53,0.685,0.012,0.139,-0.49,0.685,0
54796,20101011,-71.54,41.49,0.144,-0.85,0.899,0,0.203,-0.25,0.482,0.065,0.197,-0.16,0.292,0,0.145,-0.65,1,0,0.022,-1.03,1,0,0.174,-0.54,0.685,0.012,0.142,-0.47,0.685,0
54796,20101012,-71.54,41.49,0.143,-0.9,0.899,0,0.205,-0.29,0.482,0.065,0.201,-0.14,0.167,0,0.149,-0.63,1,0,0.023,-0.98,1,0,0.174,-0.59,0.685,0.012,0.144,-0.48,0.685,0
54796,20101013,-71.54,41.49,0.141,-0.96,0.899,0,0.206,-0.34,0.494,0.065,0.204,-0.14,0.137,0,0.153,-0.61,1,0,0.023,-0.94,1,0,0.174,-0.66,0.69,0.012,0.146,-0.51,0.685,0
54796,20101014,-71.54,41.49,0.131,-1.13,1,0,0.195,-0.55,0.637,0,0.198,-0.27,0.274,0,0.155,-0.61,1,0,0.023,-0.89,1,0,0.163,-0.85,0.833,0,0.14,-0.62,0.827,0
54796,20101015,-71.54,41.49,0.13,-1.18,0.952,0,0.194,-0.62,0.726,0.03,0.196,-0.35,0.375,0,0.155,-0.61,1,0,0.023,-0.84,1,0,0.162,-0.92,0.929,0,0.14,-0.67,0.923,0
54796,20101016,-71.54,41.49,0.135,-1.15,0.952,0,0.199,-0.59,0.726,0.03,0.2,-0.36,0.375,0,0.157,-0.61,1,0,0.024,-0.8,1,0,0.167,-0.9,0.893,0,0.143,-0.68,0.911,0
54796,20101017,-71.54,41.49,0.137,-1.15,0.952,0,0.203,-0.59,0.708,0.03,0.203,-0.38,0.375,0,0.16,-0.61,0.994,0,0.024,-0.76,1,0,0.17,-0.9,0.893,0,0.145,-0.69,0.911,0
54796,20101018,-71.54,41.49,0.14,-1.15,0.952,0,0.206,-0.57,0.69,0.03,0.206,-0.4,0.423,0,0.163,-0.61,0.994,0,0.025,-0.74,1,0,0.173,-0.89,0.893,0,0.148,-0.69,0.911,0
54796,20101019,-71.54,41.49,0.142,-1.15,0.952,0,0.209,-0.56,0.69,0.03,0.208,-0.42,0.548,0,0.166,-0.62,0.994,0,0.025,-0.72,1,0,0.175,-0.87,0.893,0,0.15,-0.69,0.911,0
54796,20101020,-71.54,41.49,0.144,-1.15,0.952,0,0.212,-0.53,0.69,0.03,0.211,-0.43,0.577,0,0.17,-0.63,0.994,0,0.025,-0.71,1,0,0.178,-0.86,0.893,0,0.152,-0.68,0.911,0
54796,20101021,-71.54,41.49,0.147,-1.13,0.952,0,0.216,-0.5,0.69,0.03,0.214,-0.43,0.577,0,0.172,-0.65,0.994,0,0.026,-0.69,1,0,0.181,-0.83,0.893,0,0.155,-0.66,0.911,0
54796,20101022,-71.54,41.49,0.146,-1.16,1,0,0.215,-0.51,0.743,0,0.215,-0.44,0.617,0,0.175,-0.66,0.994,0,0.027,-0.68,1,0,0.181,-0.85,0.94,0,0.156,-0.67,0.958,0
54796,20101023,-71.54,41.49,0.142,-1.22,1,0,0.211,-0.59,0.886,0,0.211,-0.51,0.76,0,0.176,-0.69,0.994,0,0.027,-0.67,1,0,0.176,-0.92,1,0,0.153,-0.72,1,0
54796,20101024,-71.54,41.49,0.141,-1.25,1,0,0.209,-0.63,0.982,0,0.21,-0.56,0.904,0,0.176,-0.72,1,0,0.027,-0.67,1,0,0.175,-0.95,1,0,0.153,-0.75,1,0
54796,20101025,-71.54,41.49,0.142,-1.26,1,0,0.208,-0.67,1,0,0.209,-0.59,1,0,0.176,-0.75,1,0,0.028,-0.66,1,0,0.175,-0.98,1,0,0.152,-0.79,1,0
54796,20101026,-71.54,41.49,0.143,-1.26,1,0,0.208,-0.69,1,0,0.208,-0.63,1,0,0.175,-0.81,1,0,0.028,-0.65,1,0,0.175,-0.99,1,0,0.152,-0.82,1,0
54796,20101027,-71.54,41.49,0.144,-1.26,1,0,0.208,-0.72,1,0,0.208,-0.66,1,0,0.175,-0.88,1,0,0.028,-0.64,1,0,0.176,-1,1,0,0.152,-0.85,1,0
54796,20101028,-71.54,41.49,0.148,-1.22,1,0,0.209,-0.72,1,0,0.209,-0.69,1,0,0.175,-0.94,1,0,0.027,-0.64,1,0,0.179,-0.98,1,0,0.154,-0.87,1,0
54796,20101029,-71.54,41.49,0.151,-1.2,1,0,0.21,-0.74,1,0,0.21,-0.71,1,0,0.175,-0.99,1,0,0.027,-0.64,1,0,0.18,-0.98,1,0,0.155,-0.89,1,0
54796,20101030,-71.54,41.49,0.153,-1.18,1,0,0.21,-0.76,1,0,0.21,-0.76,1,0,0.175,-1.05,1,0,0.027,-0.63,1,0,0.182,-0.99,1,0,0.155,-0.92,1,0
54796,20101031,-71.54,41.49,0.154,-1.19,1,0,0.211,-0.78,1,0,0.21,-0.81,1,0,0.175,-1.11,1,0,0.027,-0.63,1,0,0.183,-1.02,1,0,0.155,-0.96,1,0
54796,20101101,-71.54,41.49,0.155,-1.21,1,0,0.211,-0.8,1,0,0.21,-0.86,1,0,0.175,-1.17,1,0,0.027,-0.62,1,0,0.183,-1.06,1,0,0.156,-0.99,1,0
54796,20101102,-71.54,41.49,0.155,-1.26,1,0,0.211,-0.83,1,0,0.21,-0.92,1,0,0.175,-1.22,1,0,0.027,-0.62,1,0,0.183,-1.11,1,0,0.156,-1.03,1,0
54796,20101103,-71.54,41.49,0.155,-1.32,1,0,0.211,-0.87,1,0,0.21,-0.98,1,0,0.175,-1.27,1,0,0.027,-0.62,1,0,0.183,-1.16,1,0,0.156,-1.09,1,0
54796,20101104,-71.54,41.49,0.153,-1.43,1,0,0.21,-0.94,1,0,0.209,-1.05,1,0,0.175,-1.34,1,0,0.027,-0.63,1,0,0.181,-1.25,1,0,0.155,-1.17,1,0